RH
82 78 78 79 80 81 77 77 80 79 79 76 75 75 81 79 80 80 80 81 82 82 83 84 84 79 90 90 79 37 47 64 84 85 84 84 83 89 93 86 88 98 81 81 80 74 72
77 80 81 78 80 79 77 79 81 78 85 77 79 77 77 79 79 79 79 80 80 80 80 83 85 83 84 97 59 58 44 33 63 83 87 85 87 81 86 79 79 78 82 78 76 76 79
80 79 78 78 79 78 79 78 77 77 72 74 77 76 77 80 79 78 78 78 78 82 84 90 88 81 74 79 61 62 50 59 53 86 91 82 80 80 82 84 74 77 92 86 83 85 86
76 77 78 78 77 78 76 77 78 77 77 83 85 83 83 75 77 78 77 78 72 54 67 94 86 86 80 62 62 65 64 65 63 67 97 86 81 83 86 74 79 91 93 92 66 80 78
77 76 78 78 79 82 84 83 83 81 82 81 78 74 73 74 76 77 78 59 16 50 98 95 86 78 86 66 74 70 68 73 60 57 69 86 96 86 83 94 93 86 84 86 74 72 78
79 76 82 85 83 80 80 82 79 80 78 77 80 82 82 79 76 79 68 34 33 94 85 90 78 87 77 75 61 65 62 73 72 77 90 92 97 94 90 94 90 76 92 74 75 69 78
79 87 83 83 81 83 82 85 80 80 84 87 88 88 86 82 78 74 55 56 73 70 66 77 76 81 70 59 56 72 71 76 74 86 88 91 94 89 78 70 65 63 76 74 70 71 82
84 82 89 86 84 88 86 76 83 86 83 86 91 90 88 83 81 71 54 75 66 77 91 64 67 59 52 58 82 62 71 88 86 92 82 84 92 64 63 68 73 79 86 82 61 74 80
82 85 87 81 73 80 80 77 82 71 68 74 89 91 88 85 79 63 67 63 70 76 91 69 66 72 66 61 70 67 78 80 90 92 84 80 66 58 67 75 78 81 88 83 78 80 85
84 88 82 77 77 76 72 80 86 75 70 77 88 90 87 86 70 74 62 60 75 83 90 61 78 80 72 72 87 64 61 74 80 86 76 76 57 65 71 79 77 96 79 83 88 97 91
83 81 78 85 94 83 78 84 81 70 74 83 80 84 84 87 88 84 50 59 69 88 96 40 57 58 43 83 78 68 62 73 79 86 81 69 75 72 82 79 75 88 58 65 70 80 89
84 83 85 86 86 78 85 85 74 74 76 77 81 81 88 83 82 57 54 55 89 95 91 66 64 48 50 46 51 73 79 66 62 77 71 59 61 65 79 74 73 68 70 78 78 89 95
78 80 81 84 82 87 87 79 79 78 79 79 83 77 83 72 72 63 48 75 94 100 53 82 71 52 55 72 63 74 96 99 88 98 96 100 81 78 62 76 81 75 96 96 96 95 80
86 83 86 89 87 86 80 79 82 79 80 84 86 51 63 65 64 61 49 77 100 39 81 54 48 48 67 62 65 64 88 96 90 85 94 80 85 98 79 77 72 86 87 91 91 86 60
75 77 78 78 78 75 77 77 75 77 85 87 71 56 68 62 62 56 79 84 65 98 85 70 59 69 66 49 62 61 67 94 95 95 96 95 79 76 80 68 60 96 95 65 87 93 92
76 71 72 68 69 71 74 75 74 73 78 90 82 83 68 59 59 63 88 59 69 93 68 72 86 65 81 90 84 78 78 96 95 93 92 88 96 68 67 62 61 58 59 91 83 94 82
69 68 68 68 75 75 74 75 75 76 78 89 83 95 59 60 62 89 94 89 90 73 62 72 78 86 94 77 85 87 97 81 90 57 73 95 97 79 70 91 85 90 97 76 70 76 73
69 68 65 73 64 70 68 75 73 76 85 79 90 92 58 61 78 94 100 90 70 78 56 61 86 92 74 80 94 82 86 79 77 60 88 94 95 96 80 63 58 62 71 89 85 89 70
69 69 70 71 65 76 63 74 71 74 88 92 89 83 73 63 88 81 80 72 78 62 60 61 68 58 71 82 90 70 65 48 51 58 81 95 88 93 95 85 75 78 69 74 74 94 81
71 77 80 80 77 76 65 68 70 74 88 84 97 96 77 83 86 90 96 80 71 57 62 61 69 62 63 72 62 83 65 50 53 50 59 70 93 89 93 91 93 92 94 75 83 96 78
72 72 75 71 73 70 68 70 74 76 87 88 90 93 82 94 85 89 94 93 82 78 70 67 68 64 80 96 81 75 62 64 56 47 53 74 88 61 53 56 60 69 94 88 98 87 90
71 69 72 72 66 75 72 69 69 77 86 87 99 98 98 94 98 99 89 90 81 75 88 79 74 69 74 93 78 94 86 76 79 54 62 66 82 60 85 47 54 64 54 48 78 79 80
71 71 69 68 65 63 68 70 66 71 81 92 97 96 99 81 95 96 89 90 81 76 71 66 72 96 89 76 71 81 70 69 72 78 77 80 85 83 75 54 64 70 72 78 72 71 72
70 69 68 67 65 69 78 73 74 73 78 85 81 91 98 92 92 81 92 93 84 74 86 74 80 93 72 60 69 72 80 78 76 75 63 72 77 71 83 79 80 40 39 38 50 59 59
73 71 69 67 67 69 72 74 73 73 74 78 77 93 98 97 88 74 89 85 82 83 89 79 71 59 62 69 92 92 71 61 55 64 69 61 64 86 100 88 66 43 51 58 65 65 54
72 70 71 71 68 68 71 70 72 75 76 78 77 84 99 97 86 72 86 86 97 100 93 81 64 64 63 88 84 97 87 67 69 57 65 69 58 71 97 100 86 47 61 54 57 69 62
74 72 70 70 76 76 76 65 72 72 74 77 79 86 100 98 90 84 97 88 87 96 96 93 86 84 72 92 93 94 74 80 91 85 89 92 93 92 81 93 70 49 56 56 77 68 60
71 69 74 75 69 69 76 67 68 66 70 74 77 81 90 98 87 81 74 87 91 92 95 86 96 87 97 97 96 91 99 94 94 51 72 94 94 94 86 96 87 66 57 68 83 60 63
73 76 72 69 72 71 70 70 67 71 74 77 85 81 87 99 88 79 80 72 66 68 79 91 88 82 86 96 95 97 90 89 89 94 79 96 94 94 90 69 70 69 62 54 56 59 61
Wind_Speed
13 13 13 14 15 16 17 17 18 19 20 22 23 24 26 27 27 29 30 30 29 28 27 25 22 17 12 5 12 11 1 3 15 22 23 15 11 7 7 6 7 10 11 6 10 11 9
13 13 14 14 15 16 17 18 18 19 20 22 24 26 27 28 30 32 33 34 34 35 33 28 22 16 11 19 23 25 21 20 16 25 20 17 9 8 5 8 12 4 13 16 7 11 6
12 13 14 14 15 16 17 19 20 20 21 22 23 26 28 30 32 34 36 39 42 34 29 25 19 15 15 24 12 14 15 12 16 26 10 20 11 11 7 4 8 10 13 10 9 6 7
12 13 14 15 16 17 18 20 21 22 22 23 24 27 29 32 34 36 39 43 35 37 30 20 14 12 10 10 16 40 25 18 12 9 21 24 24 8 5 2 2 5 8 12 6 13 8
12 14 15 16 17 18 20 21 23 22 24 24 25 27 30 32 34 36 43 39 38 22 15 7 8 10 9 4 13 25 31 28 20 19 13 21 11 11 6 15 10 7 12 16 10 10 5
13 15 16 18 19 20 21 22 22 23 24 25 25 25 27 31 35 39 36 43 19 3 4 6 2 5 8 6 7 5 13 27 8 7 4 8 7 9 13 11 20 17 12 11 8 3 12
14 15 17 18 19 20 22 22 24 25 26 27 27 26 28 30 33 38 39 14 8 5 8 7 5 7 6 4 6 6 7 15 7 10 19 15 12 26 24 23 15 13 10 15 5 3 6
15 16 18 19 21 22 22 25 24 24 27 29 28 29 28 30 31 23 28 4 5 8 16 19 22 26 35 18 8 3 17 8 12 19 17 12 28 24 15 17 20 18 19 18 12 6 8
16 17 17 20 21 22 22 23 24 25 29 30 28 27 28 28 30 14 24 4 15 17 7 9 8 7 8 11 13 21 13 5 7 16 21 26 13 22 16 16 21 21 22 18 18 4 7
16 18 19 19 19 21 23 25 24 25 28 28 28 27 28 30 13 22 16 12 24 10 5 8 4 5 3 4 6 8 27 11 10 19 18 19 26 10 23 21 17 15 12 11 7 8 6
17 19 18 22 19 21 24 23 23 27 27 28 28 28 28 25 19 7 15 24 27 3 5 5 3 8 17 5 14 1 11 16 21 8 11 15 15 25 16 25 15 9 7 9 13 15 11
17 18 18 20 20 23 22 22 25 26 27 28 28 28 27 22 20 16 19 29 1 3 8 10 8 17 19 13 7 6 2 5 8 17 17 25 3 11 18 5 13 3 7 4 10 10 12
17 17 19 21 21 21 22 24 25 26 27 27 28 27 28 16 6 15 20 9 3 4 15 10 13 21 15 15 14 9 7 8 8 5 13 6 20 4 4 10 5 11 7 4 6 7 10
17 19 21 21 21 22 23 25 25 26 27 26 27 29 24 12 7 6 11 5 0 9 3 10 13 16 6 15 11 17 11 6 14 10 2 10 11 12 8 19 10 14 13 6 7 6 8
18 19 19 19 20 22 24 24 26 26 27 26 27 24 13 5 5 10 4 3 4 2 5 9 17 5 5 11 6 9 6 13 9 19 9 8 10 5 12 9 18 7 14 17 3 2 4
16 18 18 19 21 22 23 24 25 26 27 25 22 11 10 4 12 2 4 5 3 2 4 4 4 5 8 9 9 8 5 5 6 15 17 7 5 7 5 11 12 15 7 6 10 9 12
17 18 18 19 20 22 23 24 25 26 27 18 9 4 2 11 7 4 2 5 5 5 3 2 6 6 5 8 4 5 5 4 10 17 12 11 7 1 7 6 13 8 5 7 6 8 5
17 18 19 20 21 21 23 24 25 25 24 13 4 4 6 11 3 1 2 3 5 3 4 4 3 3 5 5 4 5 4 4 5 12 9 4 4 5 10 3 13 15 12 9 5 7 8
17 18 18 19 19 19 22 23 24 24 22 10 4 4 4 3 0 3 4 3 4 4 3 4 3 2 3 3 5 4 5 6 17 13 7 10 6 7 2 1 5 1 9 16 12 1 13
19 20 19 19 20 19 21 22 23 23 21 7 2 3 3 2 2 4 2 4 3 2 9 4 5 4 3 5 3 6 12 6 11 14 13 7 4 4 3 8 8 10 12 13 18 8 11
19 20 19 20 19 20 21 21 22 23 19 7 1 3 1 4 3 5 4 2 10 7 3 2 4 4 3 3 7 5 11 13 5 9 4 4 5 10 12 16 16 18 11 12 13 18 11
18 19 19 19 19 20 21 22 20 21 18 1 1 2 2 5 3 4 5 3 8 7 4 4 7 9 5 5 10 16 12 8 5 4 5 5 4 13 5 10 6 14 15 14 11 16 17
18 18 18 19 20 20 20 20 22 21 18 3 4 6 3 7 3 2 4 4 5 4 7 9 7 8 8 12 8 10 9 13 14 13 14 3 3 5 4 11 13 5 4 3 5 5 12
18 19 20 20 21 22 22 22 23 23 19 12 13 5 3 5 3 8 5 8 8 9 10 11 8 6 5 2 6 6 9 14 17 17 12 9 8 4 5 11 2 6 12 8 11 10 15
20 21 22 24 25 25 25 24 24 24 22 21 19 3 2 3 3 12 9 8 6 6 6 6 9 5 4 3 3 5 4 4 5 8 7 17 10 3 2 3 7 7 4 5 3 5 4
21 22 23 24 25 27 27 27 26 25 23 22 20 14 4 3 4 3 3 3 4 3 5 4 3 4 1 1 2 2 3 4 5 8 10 10 11 5 1 3 3 2 6 6 2 1 6
23 25 26 28 27 27 28 27 27 26 23 23 21 10 6 4 4 5 4 4 4 1 3 4 4 3 2 1 2 3 4 1 3 4 6 3 2 7 5 3 7 9 15 8 4 4 16
25 26 27 28 30 30 29 29 29 27 28 25 23 16 8 3 6 8 6 5 2 2 4 3 3 2 2 1 2 3 2 2 2 10 7 2 5 3 3 3 7 14 9 5 5 11 11
25 27 28 29 29 29 29 30 30 31 30 27 22 16 12 5 6 16 18 22 21 22 5 3 4 4 3 1 2 0 2 3 2 3 3 1 2 2 5 5 6 6 6 10 8 11 10
Wind_Direction
40 35 32 30 27 21 15 12 10 7 2 356 351 348 346 343 339 335 330 324 318 313 308 303 302 302 312 223 244 229 235 100 182 191 184 184 180 181 195 199 178 224 250 251 244 252 245
38 34 29 24 20 15 9 6 3 360 357 354 352 348 344 342 339 335 329 324 318 310 302 295 290 285 269 255 255 264 267 255 218 197 197 181 201 188 216 214 191 196 231 250 249 243 237
35 28 21 14 11 9 6 1 356 355 351 350 349 347 345 341 338 334 329 323 316 310 304 290 276 260 255 242 252 264 253 229 218 216 207 202 191 175 183 281 231 235 252 256 239 230 234
25 19 15 9 4 2 359 357 355 351 349 349 346 345 343 339 335 333 328 322 317 312 304 293 252 227 248 252 255 250 231 246 247 245 225 210 203 204 192 200 210 191 228 246 220 199 218
16 12 8 2 359 356 355 353 350 349 345 344 343 343 340 338 335 333 331 325 323 314 307 273 185 190 259 273 234 250 236 234 249 248 247 222 196 226 194 237 245 202 246 229 253 191 181
10 4 360 358 353 350 349 347 346 344 341 340 338 340 340 341 337 334 333 330 322 322 51 130 175 190 256 230 218 226 228 215 202 173 232 222 211 223 215 201 227 233 232 244 233 178 208
4 359 354 350 349 346 342 342 343 341 339 337 337 337 338 339 338 336 338 348 11 349 359 257 260 257 295 235 252 202 170 161 193 185 205 193 216 222 214 217 231 226 242 244 210 194 231
357 353 352 349 345 344 349 343 342 347 345 342 339 335 336 338 338 333 348 37 84 285 295 247 247 262 259 282 286 205 150 155 192 208 194 205 224 222 219 217 219 235 249 256 263 226 250
353 348 347 347 346 344 342 343 340 343 343 338 338 336 333 335 334 330 334 273 335 335 272 297 226 240 248 196 240 242 188 183 192 202 198 205 229 218 219 214 213 224 239 244 252 276 263
349 346 343 339 339 342 344 340 343 344 341 341 339 336 333 335 331 328 311 321 331 329 281 279 271 288 276 203 251 230 210 194 216 209 202 223 228 213 209 225 203 241 218 233 232 244 250
348 346 342 339 348 347 341 341 344 343 343 340 341 334 333 336 306 300 314 322 322 175 280 295 18 49 342 325 317 46 233 206 223 179 178 216 194 214 217 220 205 239 165 219 244 256 265
345 340 341 346 350 342 338 342 342 341 342 342 338 330 331 330 316 313 324 321 16 241 250 356 0 345 334 317 287 275 40 244 229 247 215 221 202 192 208 177 204 166 194 205 244 240 244
341 343 344 345 343 339 343 343 341 341 341 341 337 329 324 320 279 314 329 338 3 223 349 8 329 327 314 333 322 349 289 192 210 217 229 196 225 149 125 203 190 209 182 207 215 220 248
346 352 352 350 346 348 346 343 340 342 340 340 334 329 325 328 331 327 339 41 30 313 7 317 323 311 311 22 343 341 324 255 225 243 280 224 249 188 168 208 191 204 210 221 216 207 253
354 355 351 347 346 347 345 345 343 342 341 341 335 329 332 356 5 330 62 43 255 20 288 320 315 322 330 349 333 352 343 349 48 25 329 205 225 158 187 177 187 178 207 211 329 149 270
355 352 348 347 348 346 344 344 342 344 346 343 338 310 309 346 330 37 81 266 266 262 330 304 292 330 316 360 348 331 316 42 16 9 346 292 234 202 176 186 217 206 154 174 212 220 238
351 349 345 345 349 347 347 346 345 344 344 345 351 344 273 334 327 64 156 237 278 244 339 281 292 294 343 348 320 296 345 357 14 344 341 307 282 125 131 182 182 198 184 210 178 216 227
351 345 345 348 347 348 349 349 347 343 344 349 339 311 318 339 11 43 195 213 293 300 288 266 235 277 321 305 285 289 331 220 323 340 325 297 307 287 192 121 191 193 189 180 196 220 222
344 340 339 339 341 346 349 349 348 346 349 332 318 281 315 359 319 299 285 278 249 303 282 316 279 296 290 292 327 314 331 326 351 341 345 354 355 329 72 293 33 278 217 207 220 163 202
339 334 332 333 333 341 347 344 345 345 352 347 313 304 311 46 116 147 299 271 291 264 288 248 260 278 327 317 256 291 303 333 334 326 20 31 353 333 280 293 281 283 311 227 212 231 239
346 344 342 340 341 345 343 341 341 341 346 340 250 272 214 301 287 234 241 254 291 293 255 300 289 251 140 281 306 258 322 322 325 297 33 17 263 296 296 279 264 268 272 297 232 214 208
352 352 347 344 341 339 339 341 340 345 344 310 259 311 266 267 244 244 240 227 265 284 215 264 263 292 271 256 281 296 303 301 270 297 336 325 287 308 272 260 290 281 267 252 235 235 242
349 347 345 341 340 336 334 339 337 339 348 289 254 259 255 275 259 187 216 229 250 299 272 249 276 296 274 268 276 257 257 267 255 260 277 254 263 318 278 318 311 324 170 178 232 199 207
342 338 336 334 330 330 334 332 330 331 334 321 297 277 263 275 257 271 279 265 261 279 267 289 279 272 255 314 290 269 257 255 256 256 224 238 222 252 280 294 351 245 318 285 250 232 210
339 338 336 335 334 333 329 326 324 323 326 317 311 272 248 255 234 296 262 263 289 278 275 252 269 255 309 302 327 310 288 287 256 230 216 210 208 239 238 294 298 297 36 357 335 338 287
337 336 335 333 332 328 328 325 324 322 322 320 313 311 229 270 253 253 267 219 269 255 309 245 292 311 231 211 279 288 288 290 314 326 20 205 197 190 266 225 249 263 340 345 278 307 330
335 335 334 333 331 328 325 324 322 320 321 317 305 291 230 261 252 171 212 217 187 155 247 298 289 340 148 238 244 253 271 256 300 300 350 108 171 213 264 315 290 320 321 296 296 354 315
338 335 334 334 334 330 328 325 321 319 318 317 303 291 227 225 263 207 205 216 274 177 251 260 319 348 44 157 247 255 247 314 274 287 278 213 161 186 202 225 260 10 341 357 302 307 316
335 336 336 333 331 329 325 323 319 318 317 315 300 294 262 224 242 284 273 264 243 232 245 202 221 175 217 170 217 229 321 313 255 281 257 103 150 299 224 241 6 357 280 289 313 300 297